Location: ????????
(55.4000°N, 39.1167°E)
Time: 02:53:36
(UTC+00:00)

USA 238 DEB - Pass Details

Date: 19 May 2025
Orbit: 899 x 1311 km, 63.4° (Epoch: 11 June)

Event Time Altitude Azimuth Distance (km) Brightness Sun altitude
Rises 23:06:25 0° 308° (NW) 3,876 6.8 -11.3°
Reaches altitude 10° 23:08:58 10° 308° (NW) 2,975 6.2 -11.1°
Maximum altitude 23:16:09 89° 229° (SW) 1,196 4.0 -10.7°
Drops below altitude 10° 23:24:02 10° 132° (SE) 3,245 6.1 -10.1°
Sets 23:26:55 0° 132° (SE) 4,247 6.7 -9.9°
